Location: Unspecified
(0.0000°N, 0.0000°E)
Time: 12:11:04
(UTC+00:00)

Vanguard 3 - Pass Details

Date: 13 December 2017
Orbit: 508 x 3264 km, 33.3° (Epoch: 24 June)

Event Time Altitude Azimuth Distance (km) Brightness Sun altitude
Rises 19:16:25 0° 318° (NW) 3,589 10.7 -18.8°
Reaches altitude 10° 19:18:34 10° 323° (NW) 2,890 10.1 -19.3°
Maximum altitude 19:25:42 56° 40° (NE) 1,790 8.5 -20.9°
Drops below altitude 10° 19:38:33 10° 115° (ESE) 5,046 10.8 -23.8°
Sets 19:43:34 0° 118° (ESE) 6,459 11.4 -24.9°
